Location: Unspecified
(0.0000°N, 0.0000°E)
Time: 01:01:24
(UTC+00:00)

SR - Pass Details

Date: 17 December 2018
Orbit: 581 x 876 km, 66.7° (Epoch: 16 January)

Event Time Altitude Azimuth Distance (km) Brightness Sun altitude
Rises 00:38:20 0° 216° (SW) 3,431 - -64.5°
Reaches altitude 10° 00:40:57 10° 223° (SW) 2,510 - -64.2°
Maximum altitude 00:46:20 38° 290° (WNW) 1,316 - -63.6°
Drops below altitude 10° 00:51:41 10° 356° (N) 2,497 - -63.0°
Sets 00:54:18 0° 4° (N) 3,410 - -62.7°
